Location: Altdamm
(53.4003°N, 14.6764°E)
Time: 21:14:50
(UTC+00:00)

Daily predictions for brighter satellites

Satellite Brightness Start Highest point End
(mag) Time Altitude Azimuth Time Altitude Azimuth Time Altitude Azimuth
USA 267 3.4 18:35:39 10° ENE 18:42:09 59° SE 18:48:35 10° SW
COSMOS 2455 3.3 18:36:21 10° NW 18:42:17 54° NE 18:48:12 10° ESE
Cosmos 2369 Rocket 3.2 18:37:57 10° SW 18:43:30 53° NW 18:49:03 10° NNE
Cosmos 2151 Rocket 4.2 18:42:05 10° SSE 18:46:06 35° E 18:50:09 10° NNE
PSLV R/B 3.8 18:44:56 10° SSE 18:48:40 86° WSW 18:52:30 10° NNW
Genesis I 3.1 18:46:12 10° NW 18:49:50 76° SW 18:53:27 10° SE
Cosmos 2219 4.5 18:48:52 10° NNW 18:53:48 29° NE 18:58:40 10° E
SPOT 1/Viking Rocket 4.5 18:50:57 10° S 18:56:02 52° W 19:01:09 10° NNW
CENTAUR R/B 3.7 18:53:41 10° NW 19:01:04 53° NNE 19:09:44 10° E
Cosmos 2263 Rocket 3.7 18:57:49 10° NNW 19:02:29 25° NE 19:07:06 10° E
CZ-4B R/B 4.1 18:59:48 10° S 19:05:17 52° W 19:10:43 10° NNW
Cosmos 1437 Rocket 4.1 19:02:30 10° N 19:05:44 24° ENE 19:08:41 11° ESE
CZ-4C R/B 3.6 19:02:35 10° NNE 19:05:45 34° E 19:08:50 10° SSE
Okean 2 Rocket 3.3 19:03:27 10° S 19:07:50 53° E 19:12:13 10° NNE
NOSS 3-1 (A) 3.2 19:03:40 10° SSW 19:08:37 59° SE 19:14:39 10° NE
Iridium 2 3.2 19:07:56 10° N 19:10:50 51° E 19:13:42 10° SSE
Aureole 1 Rocket 3.6 19:10:07 10° N 19:12:38 23° NE 19:14:43 13° ESE
ERS-1 Rocket 3.5 19:10:26 11° SE 19:15:00 42° ENE 19:19:43 10° N
Cosmos 371 Rocket 3.7 19:11:00 10° NNW 19:15:45 63° WSW 19:20:29 10° S
USA 281 3.4 19:09:31 10° SSE 19:16:06 80° WSW 19:22:44 10° NNW
Cosmos 304 Rocket 4.0 19:12:16 10° NNW 19:17:03 73° WSW 19:21:47 10° SSE
USA 229 DEB 4.1 19:12:34 10° S 19:17:59 33° ESE 19:23:53 10° NE
USA 229 4.1 19:12:41 10° S 19:18:06 33° ESE 19:23:58 10° ENE
NOSS 8 (H) 4.3 19:17:28 10° NW 19:20:27 73° NE 19:23:15 15° SE
USA 234 4.0 19:14:34 10° SSE 19:20:46 44° SW 19:26:59 10° WNW
CZ-4C R/B 3.0 19:14:54 10° NW 19:21:34 74° NE 19:28:59 13° ESE
IRS-1C Rocket 4.2 19:16:39 10° SSE 19:21:53 69° ENE 19:27:10 10° NNW
NOSS 8 (E) 4.3 19:18:57 10° NW 19:21:57 83° SW 19:24:47 15° SE
Cosmos 1455 Rocket 4.2 19:24:47 14° SE 19:27:28 25° E 19:31:04 10° NNE
SPOT 3 Rocket 4.2 19:23:39 14° SE 19:27:46 40° ENE 19:32:36 10° N
NOSS 3-1 (C) 3.6 19:23:17 10° WSW 19:28:28 70° NW 19:34:54 10° NE
Okean 1 Rocket 3.2 19:24:13 10° S 19:28:34 54° E 19:32:56 10° NNE
CZ-4 R/B 4.1 19:28:44 10° SW 19:31:18 17° W 19:33:50 10° NW
Sich 1 Rocket 3.6 19:28:41 10° S 19:33:06 89° ESE 19:37:37 10° NNE
Okean-O 3.1 19:34:04 10° S 19:38:25 59° WSW 19:42:48 10° NNW
SPOT 5 3.1 19:34:11 10° SSE 19:39:30 89° ENE 19:44:44 10° NNW
ATLAS 3B R/B 2.9 19:33:05 10° SW 19:40:18 89° SE 19:48:04 10° NE
Cosmos 1937 Rocket 4.4 19:36:52 10° NNW 19:41:48 37° NE 19:45:24 17° ESE
Terra 1.9 19:42:00 17° SE 19:45:30 60° ENE 19:50:11 10° N
Cosmos 2058 3.7 19:43:15 10° N 19:46:59 34° ENE 19:48:56 22° ESE
Cosmos 332 Rocket 3.9 19:43:47 10° NNW 19:48:40 79° WSW 19:52:26 17° SSE
BREEZE-M R/B 3.5 19:46:55 10° WSW 19:48:46 19° SSW 19:49:11 18° S
USA 245 3.7 19:45:05 15° SSE 19:49:22 76° ENE 19:53:32 10° NNW
Landsat 4 3.5 19:47:07 18° SSE 19:49:38 86° WSW 19:53:11 10° NNW
Okean O Rocket 3.6 19:48:13 10° SSW 19:51:52 26° W 19:55:34 10° NW
Cosmos 2227 Rocket 2.2 19:48:01 10° NNW 19:53:45 85° ENE 19:57:45 20° SSE
Cosmos 1605 Rocket 4.0 19:47:44 10° N 19:54:12 88° E 19:59:56 13° S
ATLAS CENTAUR R/B 1.1 19:50:35 10° NW 19:54:20 74° NE 19:56:25 26° SE
Cosmos 1898 Rocket 3.8 19:50:59 10° NNW 19:56:11 56° ENE 19:59:24 22° SE
Cosmos 1980 Rocket 3.5 19:57:06 19° ESE 19:58:01 20° E 20:01:58 10° NE
SL-4 R/B 2.4 19:55:59 10° W 19:59:19 37° SSW 20:00:29 28° SSE
MetOp-B 4.5 19:54:34 10° S 19:59:48 64° WSW 20:05:10 10° NNW
Spot 2 Rocket 3.5 19:58:15 20° SSE 20:01:47 76° ENE 20:06:50 10° NNW
Cosmos 44 3.5 19:57:26 10° SSW 20:02:44 59° SE 20:07:57 10° NE
Iridium 4 Rocket 3.9 19:59:54 10° S 20:05:32 78° W 20:11:27 10° N
Cosmos 1697 Rocket 3.1 20:00:58 11° S 20:05:57 42° ESE 20:11:15 10° NE
Cosmos 1626 Rocket 4.4 20:01:58 10° N 20:06:05 37° ENE 20:07:54 26° ESE
Resurs 01 Rocket 4.1 20:05:40 10° SW 20:08:48 19° W 20:11:57 10° NW
Landsat 5 4.2 20:05:47 10° NNE 20:09:37 33° E 20:10:37 29° SE
USA 81 4.4 20:07:13 24° SSE 20:10:05 46° E 20:15:07 10° NNE
Cosmos 405 Rocket 2.6 20:08:23 25° S 20:10:23 62° E 20:14:04 10° NNE
Cosmos 2360 4.2 20:05:35 10° SSW 20:11:09 58° ESE 20:16:44 10° NE
BlueWalker 3 1.9 20:11:55 10° WSW 20:15:41 57° SSE 20:17:50 23° E
H-2A R/B 4.2 20:18:47 15° ENE 20:19:53 17° ENE 20:22:21 10° NNE
Cosmos 1763 Rocket 3.3 20:16:02 10° SSW 20:21:05 70° ESE 20:26:15 10° NNE
Ariane Rocket 3.1 20:18:25 22° S 20:21:43 77° WSW 20:26:48 10° NNW
Cosmos 2297 Rocket 3.2 20:16:31 10° NW 20:21:44 39° WSW 20:25:59 15° S
ATLAS 5 CENTAUR R/B 3.1 20:19:26 10° W 20:22:42 32° NNW 20:26:28 10° NE
Cosmos 1656 3.8 20:19:14 10° SW 20:24:47 74° WNW 20:30:18 10° NNE
ARGOS Delta rocket 4.1 20:21:46 26° SSE 20:24:59 82° ENE 20:30:30 10° N
USA 267 3.4 20:18:48 10° ENE 20:25:22 77° NNW 20:31:55 10° W
COSMOS 2455 3.6 20:22:30 10° NW 20:28:11 43° WSW 20:32:00 20° S
Cosmos 1544 Rocket 4.1 20:27:51 34° ESE 20:28:43 38° E 20:32:44 10° NNE
NOSS 3-2 (A) 4.0 20:23:11 10° NW 20:30:12 77° NE 20:35:41 24° ESE
Cosmos 2100 Rocket 4.0 20:25:53 10° N 20:32:16 70° ENE 20:35:42 29° SSE
Cosmos 1892 Rocket 4.2 20:28:06 10° NNW 20:32:18 51° W 20:34:56 21° SSW
Cosmos 1727 Rocket 4.0 20:30:01 21° S 20:34:17 70° E 20:40:29 10° NNE
MOS 1 Rocket 3.0 20:33:50 36° SSE 20:35:35 87° ENE 20:40:02 10° NNW
Cosmos 540 Rocket 3.3 20:34:06 18° SSW 20:37:54 71° ESE 20:43:01 10° NNE
Cosmos 2219 3.2 20:32:53 10° NNW 20:38:35 80° WSW 20:41:16 32° SSE
Meteor 2-1 Rocket 4.3 20:38:28 31° SSE 20:40:54 57° E 20:46:18 10° NNE
Cosmos 1437 Rocket 3.8 20:37:55 10° NNW 20:41:37 40° W 20:43:34 23° SSW
Okean 1-7 Rocket 3.8 20:41:52 10° N 20:46:23 57° ENE 20:47:36 42° SE
Cosmos 2228 3.5 20:46:45 38° ESE 20:47:03 39° E 20:50:59 10° NNE
Cosmos 2263 Rocket 2.1 20:41:33 10° NNW 20:47:13 85° ENE 20:49:35 36° SE
Cosmos 2123 Rocket 4.4 20:46:11 32° SE 20:48:36 46° E 20:54:36 10° NNE
Cosmos 372 Rocket 4.0 20:43:24 10° NNW 20:48:39 78° WSW 20:50:48 36° SSE
Cosmos 1602 Rocket 3.8 20:45:07 10° N 20:49:25 56° ENE 20:50:25 44° ESE
Cosmos 1758 Rocket 3.7 20:45:51 10° N 20:50:17 63° ENE 20:51:25 46° SE
Cosmos 1862 4.1 20:48:14 10° N 20:51:51 34° ENE 20:52:13 34° E
CENTAUR R/B 3.3 20:44:26 10° NW 20:52:28 78° SW 20:57:37 30° SSE
Cosmos 1271 Rocket 4.4 20:49:47 10° NNE 20:52:40 20° ENE 20:53:02 20° ENE
Cosmos 292 Rocket 3.9 20:48:01 10° NNW 20:52:44 63° WSW 20:54:25 38° S
ERS-1 Rocket 4.2 20:50:22 16° SSW 20:53:50 35° W 20:58:27 10° NNW
Cosmos 1606 3.0 20:54:54 45° E 20:54:54 45° E 20:58:07 10° NNE
Cosmos 468 Rocket 3.9 20:51:28 18° SSW 20:55:23 89° ESE 21:00:40 10° NNE
USA 238 DEB 4.5 20:48:38 10° NW 20:55:32 52° NNE 21:01:44 15° E
USA 238 4.5 20:48:44 10° NW 20:55:37 52° NNE 21:01:52 15° E
Aureole 1 Rocket 3.9 20:53:19 10° NW 20:55:46 23° WSW 20:56:10 22° WSW
Cosmos 2082 3.6 20:50:31 10° NNW 20:56:13 86° WSW 20:58:26 39° SSE
NOSS 3-1 (A) 4.3 20:54:25 10° W 20:59:40 48° NNW 21:06:09 10° NE
MetOp-A 3.7 21:00:33 43° SSW 21:01:25 55° WSW 21:05:12 10° NNW
Meteor 2-13 Rocket 4.4 20:59:08 28° S 21:02:33 84° E 21:08:45 10° NNE
ARIANE 5 R/B 3.0 21:01:50 44° ESE 21:02:50 54° ENE 21:07:13 10° N
Meteor 2-8 Rocket 4.5 20:58:00 10° N 21:04:10 68° ENE 21:06:35 38° SSE
Cosmos 841 Rocket 3.5 21:03:20 44° SSE 21:04:36 57° ESE 21:09:39 10° NNE
CZ-2C R/B 4.4 21:00:09 10° NNE 21:04:36 38° E 21:04:55 38° ESE
Cosmos 1455 Rocket 4.1 21:01:47 16° SW 21:05:02 44° WNW 21:09:15 10° N
Cosmos 2322 Rocket 4.3 21:07:00 11° E 21:07:00 11° E 21:07:35 10° E
Cosmos 1825 Rocket 4.1 21:03:59 10° N 21:08:12 43° ENE 21:08:49 40° E
USA 229 DEB 3.7 21:02:04 10° SW 21:08:21 76° NW 21:15:25 10° NE
USA 229 3.7 21:02:09 10° SW 21:08:27 76° NW 21:15:31 10° NE
Meteor 2-3 Rocket 3.7 21:03:45 10° NNW 21:09:28 85° WSW 21:11:41 40° S
CZ-4C R/B 3.7 21:03:23 10° NW 21:10:03 43° WSW 21:14:05 26° S
Cosmos 1459 Rocket 4.0 21:06:21 10° NNW 21:12:24 73° W 21:15:13 34° S
Cosmos 2233 Rocket 4.2 21:06:38 10° N 21:12:44 58° ENE 21:14:55 38° SE
Cosmos 1725 Rocket 3.9 21:07:22 10° N 21:13:36 81° E 21:16:00 40° SSE
ALOS 2 3.8 21:19:22 28° E 21:20:11 30° ENE 21:24:01 10° N
Cosmos 2058 4.5 21:20:02 10° NNW 21:23:28 27° W 21:24:49 23° WSW
Terra 3.7 21:20:43 14° SW 21:23:29 23° W 21:27:13 10° NW
Cosmos 1937 Rocket 4.1 21:18:47 10° NW 21:23:53 48° WSW 21:25:32 36° SSW
Cosmos 2061 Rocket 4.0 21:17:36 10° N 21:24:05 75° ENE 21:26:24 42° SSE
GENESIS II 4.1 21:21:31 10° NW 21:25:07 69° NNE 21:25:07 69° NNE
SL-16 R/B 3.5 21:26:34 23° E 21:26:34 23° E 21:30:28 10° NE
Cosmos 1869 3.3 21:28:03 63° WSW 21:28:23 67° WNW 21:32:15 10° N
PSLV R/B 4.3 21:24:40 10° NNE 21:28:15 48° E 21:28:15 48° E
Cosmos 1844 Rocket 3.2 21:25:50 10° NNW 21:31:19 50° NE 21:33:24 34° ESE
ATLAS CENTAUR R/B 3.2 21:29:04 10° WNW 21:31:31 18° WSW 21:31:31 18° WSW
ATLAS 3B R/B 4.0 21:24:49 10° W 21:31:54 45° NNW 21:39:21 10° NE
Cosmos 1544 4.2 21:33:02 10° NNW 21:35:00 30° WNW 21:35:00 30° WNW
Cosmos 2227 Rocket 4.0 21:33:00 10° NW 21:37:07 21° W 21:39:35 16° SW
Cosmos 1980 Rocket 2.1 21:38:47 35° SSW 21:41:17 88° WNW 21:47:00 10° NNE
NOSS 3-2 (C) 3.9 21:39:56 10° NW 21:47:06 85° SW 21:50:47 38° SE
Cosmos 1726 Rocket 3.9 21:48:57 49° ENE 21:48:57 49° ENE 21:52:49 10° NNE
Cosmos 2278 4.1 21:48:43 43° ESE 21:48:49 43° ESE 21:54:09 10° NE
Cosmos 1697 Rocket 3.6 21:44:25 10° WSW 21:49:54 47° NW 21:55:24 10° NNE
Meteor 2-19 Rocket 4.4 21:48:37 50° SSE 21:50:08 67° E 21:56:11 10° NNE
BlueWalker 3 3.1 21:50:01 10° W 21:52:17 34° W 21:52:17 34° W
H-2A R/B 2.5 21:54:49 61° WNW 21:54:49 61° WNW 21:58:16 10° NNW
Cosmos 1666 3.1 21:52:49 10° N 21:55:38 54° N 21:55:38 54° N
Cosmos 1953 Rocket 3.4 21:54:09 10° N 21:58:31 79° ENE 21:58:31 79° ENE
Cosmos 1238 Rocket 4.1 22:01:25 28° NE 22:01:25 28° NE 22:03:48 10° NNE
Cosmos 2084 4.4 22:03:35 34° ENE 22:03:35 34° ENE 22:05:52 10° NE
Meteor 1-27 4.1 22:02:30 52° SSW 22:03:54 82° WNW 22:09:30 10° NNE
Cosmos 1814 Rocket 3.8 22:07:03 67° SE 22:07:24 70° ESE 22:12:33 10° NNE
ATLAS 5 CENTAUR R/B 4.0 22:04:35 10° NW 22:07:44 22° N 22:11:22 10° NE
USA 267 3.6 22:01:42 10° E 22:08:11 67° N 22:14:41 10° WNW
Lacrosse 5 3.7 22:14:11 18° E 22:14:11 18° E 22:15:52 10° ENE
Cosmos 2151 2.9 22:07:58 10° NNW 22:11:59 79° NNW 22:11:59 79° NNW
Cosmos 2227 4.3 22:08:11 10° NW 22:13:49 60° WSW 22:14:40 54° SSW
Spot 4 3.8 22:15:58 68° SW 22:16:18 71° WSW 22:21:07 10° NNW
Cosmos 2369 3.9 22:13:52 33° SW 22:16:24 67° NW 22:22:03 10° NNE
Cosmos 1500 4.3 22:13:46 10° NNW 22:16:20 35° WNW 22:16:20 35° WNW
Cosmos 2237 4.3 22:16:54 54° SE 22:17:12 55° ESE 22:22:46 10° NE
Spot 2 4.2 22:17:41 59° WNW 22:17:41 59° WNW 22:21:22 10° NNW
Cosmos 1570 Rocket 4.3 22:27:41 49° ESE 22:27:41 49° ESE 22:32:36 10° NE
Cosmos 1271 Rocket 3.7 22:24:42 10° NNW 22:27:36 39° WNW 22:27:36 39° WNW
Cosmos 2263 Rocket 3.8 22:26:27 10° NW 22:30:27 20° W 22:31:16 20° WSW
Timation 2 Rocket 4.0 22:23:58 10° NNW 22:30:41 84° NE 22:32:32 50° SE
Lacrosse 4 Rocket 1.7 22:32:23 61° NNE 22:32:23 61° NNE 22:35:47 10° NE
Cosmos 2360 Rocket 2.9 22:35:15 37° ESE 22:35:15 37° ESE 22:40:17 10° NE
Cosmos 1076 Rocket 3.7 22:32:40 10° NNW 22:36:36 65° WNW 22:36:36 65° WNW
ARIANE 5 R/B 4.3 22:39:18 23° W 22:39:32 23° W 22:43:08 10° NW
CENTAUR R/B 4.3 22:35:43 10° WNW 22:42:30 28° WSW 22:44:45 25° SW
H-2A R/B 2.6 22:39:47 10° NNE 22:43:20 49° ENE 22:43:20 49° ENE
Cosmos 2344 4.4 22:37:47 10° NW 22:45:21 57° NNE 22:55:11 10° ESE
Cosmos 1461 4.4 22:42:27 10° NNW 22:45:58 31° NNE 22:47:07 26° ENE
Cosmos 1606 Rocket 4.5 22:46:03 37° W 22:46:25 38° WNW 22:50:29 10° N
USA 238 DEB 3.9 22:39:42 10° NW 22:46:54 70° SW 22:49:09 48° SSE
USA 238 3.9 22:39:47 10° NW 22:47:00 70° SW 22:49:16 48° SSE
Meteor 1-20 Rocket 4.1 22:41:56 10° NNW 22:47:37 88° ENE 22:48:31 65° SSE
Cosmos 2278 Rocket 3.9 22:43:20 10° NNW 22:48:15 29° NE 22:53:10 10° E
Cosmos 2322 Rocket 2.2 22:48:47 57° SE 22:49:01 57° ESE 22:54:33 10° NE
Cosmos 2219 Rocket 3.4 22:49:17 26° ESE 22:49:17 26° ESE 22:53:45 10° NE
Cosmos 2333 Rocket 2.7 22:51:28 42° ESE 22:51:31 42° ESE 22:56:48 10° NE
Cosmos 1125 Rocket 3.8 22:49:47 10° NNW 22:54:52 53° WSW 22:54:58 53° WSW
Cosmos-2242 3.6 22:55:34 49° ENE 22:55:34 49° ENE 22:59:08 10° NNE
ALOS 2 3.4 22:56:46 40° W 22:56:46 40° W 23:00:36 10° NNW
Intercosmos 24 4.4 22:56:35 59° WNW 22:56:35 59° WNW 23:00:23 10° N
Cosmos 158 Rocket 4.2 22:57:31 50° E 22:57:31 50° E 23:02:10 10° NE
Cosmos 2084 Rocket 4.5 22:53:40 10° NW 22:56:03 34° WNW 22:56:03 34° WNW
SL-24 R/B 4.3 22:52:39 10° NNE 22:57:37 65° E 22:57:37 65° E
Meteor 1-25 Rocket 4.0 22:56:32 10° NNW 23:02:11 87° WSW 23:02:57 68° S
Cosmos 1812 Rocket 4.2 23:04:09 46° E 23:04:09 46° E 23:08:10 10° NNE
Cosmos 1900 4.3 22:59:25 10° NW 23:04:34 80° NE 23:05:11 68° ESE
Cosmos 2058 Rocket 3.4 23:05:23 56° WNW 23:05:23 56° WNW 23:09:36 10° N
Cosmos 1782 3.6 23:09:36 44° NE 23:09:36 44° NE 23:12:32 10° NNE
Cosmos 1464 Rocket 4.1 23:02:52 10° NNW 23:09:12 69° W 23:10:34 54° SSW
Cosmos 1844 4.1 23:03:45 10° NW 23:09:15 47° WSW 23:09:29 47° WSW
Cosmos 1812 3.7 23:10:17 42° NNW 23:10:17 42° NNW 23:12:59 10° N
SL-16 R/B 2.2 23:08:22 55° SW 23:09:36 77° WNW 23:15:20 10° NNE
Tsikada Rocket 4.4 23:08:19 42° SE 23:09:43 49° E 23:15:37 10° NNE
Cosmos 44 Rocket 4.4 23:11:37 35° ESE 23:11:37 35° ESE 23:15:41 10° NE
USA 215 4.4 23:08:11 10° ENE 23:12:57 24° ESE 23:12:57 24° ESE
Cosmos 1844 Rocket 3.4 23:09:57 10° NW 23:15:02 38° WSW 23:15:02 38° WSW
Meteor 2-21 4.4 23:15:34 57° SSW 23:16:57 82° WNW 23:23:13 10° N
Meteor 2-21 Rocket 4.4 23:16:58 58° S 23:18:17 80° E 23:24:31 10° NNE
Cosmos 1943 Rocket 4.0 23:16:07 10° NNW 23:21:04 30° NE 23:26:00 10° E
Cosmos 2221 3.8 23:22:43 31° E 23:22:43 31° E 23:26:23 10° NNE
ATLAS 3B R/B 4.3 23:17:18 10° WNW 23:24:23 40° N 23:31:42 10° ENE
Cosmos 1980 Rocket 4.1 23:21:22 10° W 23:26:04 26° NW 23:30:50 10° NNE
Cosmos 2208 Rocket 4.0 23:27:53 63° SW 23:28:44 79° WNW 23:34:13 10° NNE
NOSS 3-4 (A) 3.3 23:28:36 55° SE 23:28:59 57° SE 23:34:59 10° NE
NOSS 3-4 (C) 3.3 23:28:39 55° SE 23:29:02 56° SE 23:35:02 10° NE
Cosmos 1743 4.0 23:26:03 10° N 23:29:17 33° ENE 23:29:17 33° ENE
Cosmos 2034 Rocket 4.0 23:25:55 10° NNW 23:32:02 67° W 23:33:15 54° SSW
Cosmos 836 Rocket 4.4 23:33:12 70° SW 23:33:51 87° WNW 23:39:10 10° NNE
Cosmos 1933 3.6 23:39:57 66° N 23:39:57 66° N 23:43:23 10° N
Cosmos 773 Rocket 3.9 23:45:58 67° S 23:46:35 77° ESE 23:51:52 10° NNE
Aureole 3 Rocket 3.4 23:43:54 10° NNW 23:47:34 50° NW 23:47:34 50° NW
Meteor 2-2 Rocket 4.3 23:48:35 56° SSW 23:49:53 77° WNW 23:55:54 10° NNE
USA 267 3.2 23:44:32 10° ESE 23:51:07 88° SSW 23:57:43 10° WNW
Cosmos 1634 Rocket 3.9 23:45:40 10° NNW 23:52:02 85° W 23:53:50 51° S
Meteor 1-5 Rocket 4.3 23:46:46 10° NNW 23:52:33 69° W 23:53:39 56° SSW
ATLAS 5 CENTAUR R/B 3.3 23:48:42 10° NW 23:52:44 35° NNE 23:57:37 10° E
Lacrosse 5 1.7 23:53:21 67° SW 23:54:02 87° SSE 23:59:11 10° ENE
